Temp
13 14 15 16 17 17 17 18 19 19 19 20 21 21 21 21 23 22 29 32 31 30 27 30 32 33 34 36 37 38 37 39 39 38 36 38 37 37 37 34 34 35 34 32 30
14 15 15 16 16 17 18 18 19 19 20 20 21 21 21 21 20 28 31 31 31 29 29 33 34 35 36 37 38 37 38 39 40 40 39 38 38 36 35 34 34 34 34 31 30
14 14 15 16 16 17 18 19 19 19 18 19 20 21 21 21 27 34 29 30 30 29 32 34 35 36 36 38 39 39 38 40 40 40 40 39 37 37 36 34 34 33 33 32 31
13 14 15 16 16 17 17 19 19 19 20 20 21 21 21 20 31 31 29 29 28 28 32 34 36 36 36 37 39 38 40 40 40 39 39 39 38 37 37 37 36 35 33 32 32
13 14 15 15 16 17 18 19 19 20 20 20 21 20 19 28 31 30 29 28 26 28 33 35 35 36 36 39 39 38 40 40 40 39 40 39 38 37 36 37 36 35 33 32 33
12 13 15 15 16 17 18 18 20 20 19 19 19 19 21 28 33 29 30 27 30 31 33 35 36 37 38 38 39 40 40 40 40 39 39 38 38 37 36 36 35 34 33 33 33
12 14 14 15 16 17 18 19 20 19 19 20 20 17 26 30 31 31 30 30 32 32 35 35 36 37 38 37 40 40 39 40 40 39 38 39 37 37 36 36 35 34 34 34 34
12 12 14 15 17 18 18 19 19 17 18 19 18 18 28 30 30 30 31 31 32 32 33 35 35 36 37 39 38 38 39 39 40 39 39 38 36 38 37 36 35 34 34 34 34
12 12 13 15 16 18 19 18 18 17 17 18 18 23 29 27 29 30 31 33 32 33 33 34 35 36 37 36 37 39 38 39 38 40 39 37 36 37 38 37 35 34 34 34 34
11 12 13 15 16 18 19 20 18 16 17 18 22 25 29 32 32 31 31 32 34 34 34 34 35 34 36 37 36 38 39 38 37 39 39 38 37 37 37 37 36 35 34 34 34
11 11 13 15 16 18 18 24 25 25 26 27 29 30 30 31 30 31 31 33 34 34 33 34 34 34 36 37 39 40 40 39 40 40 39 39 39 38 37 38 37 36 35 34 34
11 12 12 15 16 18 20 23 20 19 21 26 27 28 28 30 29 31 31 32 32 32 34 34 34 36 38 38 38 39 40 40 41 40 40 40 39 39 38 38 38 37 36 35 35
11 11 12 15 17 18 21 20 19 19 21 27 30 30 30 30 29 31 32 32 32 32 34 34 35 37 37 37 38 39 39 40 40 39 40 40 39 40 40 38 39 39 37 37 36
11 12 13 15 16 20 22 20 20 20 23 29 29 29 29 30 30 32 33 33 33 33 34 34 37 36 37 37 38 38 40 40 41 36 37 40 38 39 40 39 38 39 38 37 37
11 11 13 11 14 21 20 20 19 21 25 30 30 30 31 29 32 32 33 33 33 33 35 34 36 36 36 37 38 38 40 40 40 39 39 39 39 40 41 39 39 39 39 38 37
11 12 11 16 17 19 19 20 21 23 25 29 30 29 30 31 31 33 32 33 34 34 35 36 38 37 37 38 38 39 39 40 40 40 38 38 39 40 35 40 40 41 40 39 39
11 12 11 13 19 18 19 22 23 24 29 29 29 29 29 29 31 31 31 31 31 31 32 34 36 37 38 36 38 38 38 37 36 37 37 40 39 41 35 42 42 42 40 40 39
12 14 14 15 17 18 19 22 21 26 27 30 29 28 28 29 30 30 31 31 32 33 34 33 33 36 37 36 36 37 38 37 34 36 38 40 39 41 37 41 42 42 42 41 40
11 17 18 18 18 18 21 21 24 26 26 25 26 25 27 29 29 30 31 31 33 33 33 34 34 37 37 37 37 37 37 40 38 39 39 40 40 42 42 42 42 42 42 42 41
10 17 19 18 18 19 20 20 23 25 24 23 22 25 25 28 28 28 29 32 33 34 35 36 34 37 37 37 37 38 39 37 39 36 36 39 39 39 40 40 41 42 42 42 41
13 19 18 18 18 20 21 22 22 22 21 20 21 22 24 26 27 27 28 31 33 34 35 35 36 36 37 36 36 36 37 38 39 39 37 38 40 42 41 41 41 42 43 43 42
16 18 18 17 19 21 20 19 16 19 20 20 20 21 22 24 25 26 27 29 30 30 32 35 36 35 36 37 37 38 37 38 39 36 39 38 40 44 43 42 42 43 42 42 42
17 18 18 18 19 19 19 18 18 18 18 19 19 20 22 22 22 24 26 28 29 28 30 33 35 34 35 36 37 36 38 38 39 39 38 37 37 43 43 43 42 42 42 40 40
16 17 20 19 19 17 17 17 17 18 16 17 18 20 21 22 23 23 25 28 28 28 23 27 31 34 35 35 36 35 37 38 38 38 38 39 38 40 41 41 42 42 41 40 40
15 15 16 16 17 16 17 17 16 13 14 15 15 18 20 21 22 23 25 26 27 27 27 29 29 33 35 37 37 36 36 37 37 38 38 39 40 39 41 41 42 42 41 40 38
13 13 14 15 16 16 17 15 14 14 10 12 10 8 13 18 23 23 25 25 26 28 26 29 29 32 34 36 37 36 36 37 38 38 39 39 40 42 41 41 41 41 40 40 40
9 10 11 13 16 17 16 16 15 15 13 11 12 9 11 17 19 21 22 23 24 24 24 27 30 30 31 35 37 35 36 37 37 38 39 38 40 41 41 41 40 41 41 41 41
Height
820 816 813 809 805 801 797 793 789 786 782 778 775 772 769 766 761 760 753 749 749 751 753 753 751 749 747 741 732 724 741 732 728 731 737 721 733 734 734 749 751 749 755 770 783
820 817 813 808 804 799 795 791 787 783 780 776 773 770 767 763 758 749 743 744 746 748 751 747 745 743 741 735 728 732 732 728 714 714 720 723 729 740 746 754 758 759 757 774 784
821 817 812 807 802 798 793 787 783 779 776 773 770 768 766 763 753 728 734 738 740 744 745 742 739 738 741 727 725 721 732 715 714 713 708 720 731 733 742 757 755 762 767 775 782
822 818 812 807 801 796 790 785 780 777 773 769 767 765 764 764 755 733 735 735 737 742 743 739 736 740 742 737 720 735 714 715 711 714 714 722 725 736 737 738 744 753 765 775 781
822 817 812 806 801 795 788 782 777 773 769 766 763 763 763 754 739 734 736 736 739 742 737 735 737 737 741 724 719 729 717 712 709 714 713 716 731 737 742 738 743 754 765 773 778
822 817 811 805 798 792 786 780 774 770 766 763 761 761 761 754 730 732 736 739 738 738 736 732 732 726 726 725 725 712 715 711 709 716 719 727 732 733 742 739 746 756 764 770 775
822 816 809 803 797 789 783 778 772 767 764 761 759 759 753 737 731 732 734 735 735 735 731 731 729 728 725 732 713 714 728 713 713 716 726 717 741 737 737 740 750 756 762 768 773
822 815 809 801 794 787 782 775 769 766 763 759 756 760 742 728 729 731 731 731 733 734 733 729 730 728 725 715 720 727 720 732 714 717 719 724 753 732 734 742 752 755 760 766 771
821 815 808 801 793 785 779 773 767 764 761 759 758 755 735 727 727 727 727 725 728 730 731 730 729 730 728 739 738 724 737 727 729 711 720 733 744 729 730 738 750 754 758 763 768
822 815 807 800 792 784 776 770 764 762 759 760 756 753 729 720 718 721 723 723 721 724 728 731 729 738 733 735 751 732 729 721 740 719 720 731 733 731 731 734 745 750 755 760 764
821 814 807 799 792 785 776 765 760 754 751 746 736 727 723 721 722 720 719 719 717 721 734 727 740 742 726 719 713 705 711 717 703 702 718 722 724 729 730 731 738 744 751 755 758
820 813 805 798 791 786 779 776 782 784 764 739 729 725 723 721 726 715 717 721 720 728 722 728 733 715 711 710 714 707 709 711 700 697 712 715 720 713 723 728 726 735 743 747 752
819 812 804 795 789 785 784 784 783 781 767 721 710 710 712 718 719 713 711 714 720 724 719 722 715 707 710 714 718 711 711 705 711 710 705 710 722 716 710 719 719 720 728 737 744
818 810 804 793 792 785 779 783 781 780 762 713 711 709 709 707 712 704 700 707 709 719 713 714 696 706 711 714 708 722 697 697 700 734 745 710 744 716 709 717 719 717 720 728 734
816 809 802 799 796 784 787 782 780 778 759 706 707 707 703 713 694 694 693 700 709 707 706 708 704 704 712 706 699 710 693 702 699 710 717 714 732 705 696 715 714 710 710 715 723
814 808 802 796 792 788 785 781 778 770 752 711 705 709 709 699 700 687 694 693 691 698 696 694 681 689 693 692 695 695 699 701 703 710 735 718 721 711 734 699 698 695 701 706 712
810 805 801 799 790 788 784 777 770 756 707 715 710 710 710 710 698 700 700 704 707 720 712 699 692 683 679 702 693 701 709 734 747 741 739 696 715 698 701 672 679 682 691 697 703
807 800 797 796 792 788 783 774 772 732 721 703 710 713 721 711 702 700 700 701 693 693 694 707 716 685 677 691 701 702 702 718 758 746 728 695 720 697 687 675 670 673 676 686 695
805 796 792 791 790 787 779 768 748 733 725 731 727 731 718 704 705 698 691 691 685 684 698 693 698 673 673 679 684 698 705 684 707 702 714 699 695 675 666 672 670 675 675 679 686
809 795 787 790 787 783 775 766 747 736 742 745 752 731 730 710 708 708 699 678 680 674 670 669 696 667 670 674 677 679 682 711 696 735 737 706 703 708 690 686 677 678 677 677 679
805 787 785 787 783 773 762 747 750 752 761 763 753 746 732 725 712 710 702 682 665 669 669 665 671 674 663 678 687 689 688 688 686 691 722 722 701 656 673 673 678 672 667 668 674
804 787 784 786 775 758 761 764 775 768 765 763 759 754 748 733 723 719 713 693 683 681 674 662 666 679 667 659 662 669 680 683 698 711 689 699 689 638 649 657 662 662 663 665 667
799 787 784 782 770 767 767 771 769 768 764 763 758 752 743 740 740 725 714 693 693 694 687 668 667 680 672 667 663 673 667 669 676 681 696 710 710 641 644 653 658 664 668 672 668
801 784 775 778 775 778 775 773 772 768 776 771 758 749 738 732 726 729 715 697 694 695 699 694 673 665 671 666 663 680 667 667 672 688 689 684 686 679 668 662 662 665 669 671 669
806 794 793 784 781 783 778 772 772 785 782 777 769 754 741 734 728 723 717 701 698 691 693 686 687 665 652 641 648 663 669 666 675 668 684 672 673 676 667 665 661 661 668 672 677
813 808 800 792 784 782 770 777 781 782 794 780 789 794 767 740 720 718 712 707 704 690 698 683 688 669 663 645 642 657 659 660 663 664 668 665 665 648 656 656 663 666 671 674 674
821 818 816 795 775 769 774 773 773 774 780 783 780 787 776 741 732 723 718 714 706 712 711 694 679 679 679 648 643 665 652 655 658 658 661 677 660 643 651 658 664 664 664 668 668
Wind_Speed
28 29 29 28 28 27 26 25 24 23 23 23 22 21 20 21 23 10 13 10 12 13 13 12 14 14 15 14 14 17 13 3 5 4 7 12 11 2 8 10 8 5 18 27 31
29 29 29 29 29 30 28 28 26 25 24 23 21 20 18 18 19 23 26 22 17 13 17 18 15 15 13 13 10 12 13 6 8 8 6 10 11 10 10 12 11 8 24 32 30
30 31 32 32 32 32 31 30 28 24 24 24 22 18 14 14 14 12 5 20 23 19 20 18 17 14 16 15 11 15 12 8 4 1 2 14 13 7 11 11 16 16 23 26 28
33 33 34 33 33 34 34 29 26 28 27 25 22 16 10 7 6 7 4 12 15 22 22 18 16 16 16 15 14 13 9 2 5 6 3 10 15 9 8 12 17 18 23 22 23
32 33 34 35 35 34 33 28 29 28 25 21 18 11 5 9 17 6 3 10 15 20 23 18 16 17 18 13 11 12 12 2 7 5 6 10 8 12 10 7 17 19 22 23 21
33 34 34 36 36 36 31 31 30 26 19 18 15 4 8 15 5 12 11 13 15 18 17 18 14 15 16 16 11 4 5 5 6 10 7 10 11 11 12 13 17 19 22 22 22
34 35 36 36 38 36 27 31 30 19 16 17 12 7 12 17 2 9 16 17 17 17 13 18 20 12 14 15 15 11 12 9 11 11 12 10 12 5 13 14 17 18 21 21 21
35 37 36 36 38 33 28 30 26 14 15 13 3 8 8 2 12 11 14 21 19 18 17 14 17 15 19 14 8 14 16 12 15 13 11 10 13 16 15 15 16 18 19 19 20
36 37 38 36 37 29 30 24 19 13 13 5 4 11 11 3 10 17 17 17 21 20 18 14 15 17 17 15 15 16 16 13 15 16 13 9 8 16 14 15 15 17 19 19 19
36 37 38 35 36 26 28 22 17 12 6 8 11 8 8 3 1 9 22 18 17 19 15 14 13 16 17 16 16 19 21 21 17 14 15 13 10 12 13 14 15 17 18 19 20
35 36 37 35 32 22 26 15 5 6 10 13 19 18 16 11 8 11 18 21 18 18 20 21 17 21 25 23 21 21 19 12 18 23 17 16 11 16 13 13 16 16 18 19 20
35 36 37 34 23 16 15 10 7 7 14 20 25 25 27 21 9 13 18 20 17 22 23 18 23 23 23 22 24 26 19 17 14 21 16 15 13 20 18 14 15 16 18 20 20
35 36 37 32 13 11 6 11 10 10 8 17 8 12 14 23 21 18 20 25 24 25 25 25 25 24 21 23 24 25 19 17 16 15 16 14 17 15 19 16 14 14 17 19 21
35 36 36 30 6 13 2 14 12 7 6 9 6 4 7 10 13 25 25 25 23 27 26 24 25 26 25 26 23 24 22 19 17 12 13 17 12 18 17 19 17 17 18 19 22
36 37 30 9 13 8 13 15 12 6 6 7 7 3 4 10 15 24 26 22 27 22 24 26 23 26 27 25 25 23 23 22 19 18 21 23 15 15 23 20 19 18 20 21 22
37 36 22 6 12 9 17 16 7 7 9 4 4 1 7 8 11 6 25 24 23 23 25 28 24 24 21 24 23 22 24 24 17 14 16 10 18 11 12 19 19 20 19 21 22
37 28 15 9 9 17 16 11 8 9 3 5 1 2 9 12 11 17 20 25 24 23 23 26 29 25 22 23 24 26 24 14 14 16 16 21 23 14 14 18 17 21 20 20 21
38 19 10 6 12 14 13 10 14 10 12 7 8 11 15 15 15 15 23 24 30 25 17 20 26 31 18 25 24 28 26 16 21 18 17 14 19 16 21 8 6 6 17 19 21
33 14 5 4 11 12 9 10 13 13 8 11 15 16 19 16 16 16 21 24 28 31 27 21 26 28 26 24 26 26 26 26 21 21 17 16 12 11 8 14 13 10 10 17 20
24 18 4 8 14 12 9 15 18 13 10 11 17 13 15 17 6 14 18 17 24 32 29 22 17 28 27 22 27 28 24 25 21 22 22 20 22 15 16 11 13 15 13 12 14
14 6 7 14 13 7 9 9 10 13 13 9 17 20 19 20 15 16 9 17 20 27 32 32 20 23 24 28 25 23 23 26 24 21 16 16 14 16 22 19 18 15 17 16 14
9 6 9 15 8 4 6 7 11 17 17 18 20 22 23 21 19 20 20 20 12 17 19 33 22 16 30 27 26 27 28 30 18 25 17 14 11 14 14 22 19 16 9 5 10
7 8 2 13 6 9 10 12 13 15 14 18 21 23 23 23 21 17 23 23 14 15 9 11 28 17 22 24 24 29 30 28 28 24 24 13 14 7 18 17 14 9 8 3 7
6 4 1 2 4 7 11 13 12 10 12 21 22 23 23 22 20 21 24 17 8 14 13 11 19 25 19 23 25 30 27 31 28 22 23 21 12 15 8 11 14 9 9 9 2
4 4 5 6 9 11 12 13 12 10 8 17 20 24 23 21 18 22 25 20 13 11 13 13 17 22 27 20 25 28 30 28 32 29 28 24 25 14 16 11 6 13 9 9 7
4 4 7 12 9 11 11 3 7 11 4 12 5 15 20 20 20 17 22 23 17 9 9 17 15 21 24 26 23 30 30 30 29 28 28 32 22 21 19 14 9 9 11 9 9
3 8 4 10 15 7 5 8 11 8 6 8 12 8 20 15 12 14 13 13 12 8 13 16 14 18 20 26 21 23 30 28 24 29 25 27 26 18 21 18 13 15 7 2 1
Wind_Direction
14 12 9 6 0 356 350 344 337 332 326 323 321 321 323 321 314 276 251 257 213 224 170 190 209 222 231 244 245 275 275 262 63 343 141 125 109 126 46 120 151 167 137 144 149
12 11 8 3 359 355 349 342 334 327 324 320 317 317 321 320 305 271 256 243 240 210 193 202 204 211 223 234 236 250 278 22 24 17 117 127 123 120 164 140 138 142 122 142 154
11 6 4 1 356 352 347 339 333 331 327 320 315 317 320 320 276 272 181 219 232 211 215 213 219 217 236 243 224 257 278 45 65 78 301 135 116 147 130 170 149 146 142 151 159
9 4 1 357 353 349 344 338 334 330 324 316 309 310 309 290 275 68 31 220 213 193 218 213 223 222 237 234 227 248 230 308 37 151 159 137 115 133 182 136 147 148 154 159 166
5 2 359 355 350 347 341 338 329 326 322 316 309 306 294 233 252 210 157 144 169 192 216 214 220 230 236 244 228 238 267 281 161 168 137 113 155 119 103 140 143 145 160 166 173
1 359 356 353 348 345 339 336 332 326 322 317 311 270 241 256 290 163 179 166 177 199 215 219 223 226 246 267 250 258 272 287 177 140 141 185 124 174 114 135 145 153 166 173 176
359 356 354 352 347 343 337 334 332 328 325 318 302 205 251 245 209 222 205 198 200 207 218 220 231 240 236 267 241 261 253 180 177 157 149 147 151 146 135 148 151 165 169 176 179
358 354 352 350 346 342 337 331 329 323 325 331 290 206 259 234 241 215 213 219 217 227 240 242 229 244 251 272 260 239 239 203 152 167 152 232 148 126 149 151 162 167 170 176 182
356 353 348 348 344 339 333 328 323 316 321 287 204 228 262 157 231 221 215 215 208 217 222 237 227 227 231 237 242 212 223 222 161 186 146 202 196 129 162 154 164 174 173 181 184
354 352 347 345 342 340 335 322 295 292 280 251 260 253 246 269 289 237 211 228 198 201 199 216 213 217 230 212 228 212 227 152 212 179 163 192 140 139 179 164 168 181 180 185 188
352 350 346 343 340 342 337 332 285 196 271 288 284 273 288 265 246 227 204 213 195 194 199 202 207 211 211 222 231 233 212 238 183 164 197 185 181 154 177 188 172 180 185 190 195
351 349 345 342 337 353 353 20 33 325 299 280 264 261 261 262 274 244 186 199 199 198 202 192 217 219 222 211 231 246 246 216 199 156 200 195 197 163 170 199 188 183 185 194 196
349 348 344 339 325 317 1 18 333 316 263 294 266 249 238 223 236 243 187 202 202 210 204 217 211 219 218 229 219 233 241 218 204 168 192 239 200 184 170 188 210 194 185 195 196
348 346 343 337 297 331 327 342 332 323 280 160 155 106 194 232 241 224 195 205 206 215 217 219 225 205 225 220 215 222 230 255 218 152 244 214 241 190 196 181 200 204 192 193 197
345 344 340 332 308 329 328 321 319 254 280 88 104 72 177 222 329 187 214 210 224 209 215 217 217 222 209 218 219 228 210 235 244 196 221 195 225 208 189 183 194 207 198 196 194
341 342 337 340 268 328 321 313 269 236 249 151 128 219 263 219 230 243 201 211 219 228 225 234 212 223 219 218 216 227 237 212 240 241 235 164 252 189 211 189 191 192 198 200 195
337 338 320 301 324 317 314 281 243 242 94 291 13 318 306 290 249 216 202 203 215 217 220 219 232 215 230 215 212 222 223 212 210 225 234 220 211 230 351 170 197 184 181 197 199
335 330 301 276 319 322 299 253 250 283 284 301 277 306 287 288 269 254 233 214 215 218 213 212 212 220 206 217 211 216 219 224 199 213 222 226 219 237 151 223 161 195 173 183 196
337 321 268 325 323 314 278 248 245 269 352 326 319 285 272 251 255 271 226 229 215 220 228 203 224 202 205 214 227 202 220 227 229 217 229 211 208 263 206 225 187 178 187 179 187
325 300 235 325 318 285 260 263 290 330 328 315 288 289 285 285 192 247 250 226 227 216 234 243 213 220 197 215 219 233 208 219 231 225 219 223 191 213 217 192 191 198 179 176 187
296 293 78 330 300 240 249 303 348 342 355 297 302 294 281 284 288 271 286 250 218 227 221 239 245 211 190 204 202 209 212 216 232 236 229 231 218 188 193 190 198 210 190 174 191
299 295 32 329 278 186 281 8 318 295 293 286 280 270 271 282 275 261 260 265 359 314 250 226 242 234 202 200 216 213 218 206 228 228 242 252 227 196 158 180 192 203 92 45 287
304 292 260 314 304 341 338 307 300 292 288 276 267 265 261 260 258 263 271 276 297 300 5 258 233 226 219 192 208 222 210 222 214 233 237 214 252 105 162 169 166 154 99 69 238
294 299 28 271 313 313 320 306 312 318 329 300 295 264 259 249 239 247 263 237 265 287 345 307 258 229 217 201 198 210 212 211 221 218 227 222 154 203 182 187 151 154 119 75 182
281 323 51 310 331 326 296 300 331 334 310 294 282 255 255 248 237 235 242 267 268 277 269 253 249 239 237 224 207 202 219 211 221 220 224 218 226 179 169 201 194 154 125 114 114
313 331 324 294 317 288 279 323 282 282 290 290 268 309 311 277 245 221 236 236 248 269 310 269 244 238 228 238 210 206 204 223 216 224 222 236 223 205 227 172 182 135 163 151 131
321 312 290 281 276 283 322 309 302 344 266 253 284 279 284 278 346 317 306 301 310 308 291 288 231 221 233 223 217 209 207 212 212 219 223 225 239 223 205 204 172 213 200 315 219